STARLINK-35918 (66643 NORAD) Tracking and Keplerian Element Data

This shows tracking and keplerian element data for the satellite.

Feedback or suggestion? Click here.




ElementValue
Catalog66643
NameSTARLINK-35918
Epoch Orbit532
Epoch Day353.94135421
Epoch Year2025
RAAN152.7109
Inclination53.1592
Eccentricity0.0001902
Argument of Perigee82.5574
Mean Anonmoly277.565
Mean Motion15.46823421
Decay Rate-0.00986557
L11 66643U 25271AC 25353.94135421 -.00986557 00000+0 -21174-1 0 9996
L22 66643 53.1592 152.7109 0001902 82.5574 277.5650 15.46823421 5328



Live tracking and technical data element details for STARLINK-35918 (NORAD 66643). STARLINK-35918 can be tracked NOW for your location showing map with azimuth and elevation plus other details from your city location.







IsCatalogInMostPopularTable: catalog: 66643, numindb: 9
Update: records affected: 1



GetName: 66643 STARLINK-35918

Hit Count: updated at: Sat, 07 Feb 2026 09:07:08 GMT